Banks Lake Weather Center

Moon Phase Calendar



Banks Lake Water Level
Online Cameras

 


      

Current Conditions in Coulee Dam
12/3/2021 8:16:37 AM

31°F
Feels Like 26
Clouds
Humidity
69%
Pressure
30.27"
Wind
5.2 mph (N)
Dew Point
23°F
UV Index
0/10 (Low)
Visibility
6 mi

Hourly Forecast

Date & Time Fri, Dec 3
8:00 AM
Fri, Dec 3
9:00 AM
Fri, Dec 3
10:00 AM
Fri, Dec 3
11:00 AM
Fri, Dec 3
12:00 PM
Fri, Dec 3
1:00 PM
Fri, Dec 3
2:00 PM
Fri, Dec 3
3:00 PM
Fri, Dec 3
4:00 PM
Fri, Dec 3
5:00 PM
Fri, Dec 3
6:00 PM
Fri, Dec 3
7:00 PM
Fri, Dec 3
8:00 PM
Fri, Dec 3
9:00 PM
Fri, Dec 3
10:00 PM
Fri, Dec 3
11:00 PM
Sat, Dec 4
12:00 AM
Sat, Dec 4
1:00 AM
Sat, Dec 4
2:00 AM
Sat, Dec 4
3:00 AM
Sat, Dec 4
4:00 AM
Sat, Dec 4
5:00 AM
Sat, Dec 4
6:00 AM
Sat, Dec 4
7:00 AM
Sat, Dec 4
8:00 AM
Sat, Dec 4
9:00 AM
Sat, Dec 4
10:00 AM
Sat, Dec 4
11:00 AM
Sat, Dec 4
12:00 PM
Sat, Dec 4
1:00 PM
Sat, Dec 4
2:00 PM
Sat, Dec 4
3:00 PM
Sat, Dec 4
4:00 PM
Sat, Dec 4
5:00 PM
Sat, Dec 4
6:00 PM
Sat, Dec 4
7:00 PM
Sat, Dec 4
8:00 PM
Sat, Dec 4
9:00 PM
Sat, Dec 4
10:00 PM
Sat, Dec 4
11:00 PM
Sun, Dec 5
12:00 AM
Sun, Dec 5
1:00 AM
Sun, Dec 5
2:00 AM
Sun, Dec 5
3:00 AM
Sun, Dec 5
4:00 AM
Sun, Dec 5
5:00 AM
Sun, Dec 5
6:00 AM
Sun, Dec 5
7:00 AM
Condition
Clouds

Clouds

Clouds

Clouds

Clouds

Clouds

Clouds

Clouds

Clouds

Clouds

Clouds

Clouds

Clouds

Clouds

Clouds

Clouds

Clouds

Clouds

Clouds

Clouds

Clouds

Clouds

Clouds

Clouds

Clouds

Clouds

Clouds

Clouds

Clouds

Clouds

Clouds

Clouds

Clouds

Clouds

Clouds

Clouds

Clouds

Clouds

Clouds

Clouds

Clouds

Clouds

Clouds

Clouds

Clouds

Clouds

Clouds

Clouds
Temperature 31°F32°F34°F36°F39°F41°F41°F41°F37°F36°F36°F36°F36°F36°F35°F35°F35°F35°F36°F36°F36°F35°F36°F36°F35°F36°F37°F39°F41°F42°F42°F42°F38°F37°F36°F35°F33°F32°F32°F31°F31°F31°F31°F30°F29°F28°F28°F27°F
Feels Like 26°F26°F28°F30°F33°F37°F38°F38°F33°F32°F33°F30°F32°F33°F30°F31°F31°F31°F32°F33°F36°F33°F36°F33°F32°F32°F31°F33°F36°F38°F39°F42°F38°F35°F31°F28°F27°F26°F25°F25°F25°F25°F24°F24°F23°F22°F22°F21°F
Cloudiness 100%100%100%100%100%100%100%100%100%99%99%99%100%100%100%100%100%100%100%100%100%100%100%100%100%100%100%88%71%79%83%84%86%90%95%87%68%74%78%100%100%100%100%100%100%85%89%81%
Visibility 6 mi6 mi6 mi6 mi6 mi6 mi6 mi6 mi6 mi6 mi6 mi6 mi6 mi6 mi6 mi6 mi6 mi6 mi6 mi6 mi6 mi6 mi6 mi6 mi6 mi6 mi6 mi6 mi6 mi6 mi6 mi6 mi6 mi6 mi6 mi6 mi6 mi6 mi6 mi6 mi6 mi6 mi6 mi6 mi6 mi6 mi6 mi6 mi
Precipitation 0%0%0%0%0%0%0%0%0%0%0%0%0%0%0%0%0%0%0%0%0%4%7%7%7%1%0%0%0%0%0%0%0%0%0%0%0%0%0%0%0%0%0%0%0%0%0%0%
Humidity 69%67%63%59%53%46%45%47%54%53%52%53%52%52%54%52%53%54%52%53%53%55%58%59%61%59%55%53%57%60%60%60%69%70%70%68%69%70%73%77%79%79%76%73%73%73%73%75%
Dew Point 23°F23°F24°F24°F24°F21°F20°F21°F20°F20°F19°F19°F19°F19°F18°F18°F18°F18°F19°F19°F19°F20°F21°F22°F22°F22°F21°F22°F26°F28°F28°F28°F27°F27°F26°F24°F23°F22°F23°F23°F24°F24°F23°F21°F20°F19°F19°F19°F
Pressure 30.27"30.27"30.27"30.27"30.24"30.24"30.21"30.18"30.18"30.21"30.18"30.21"30.21"30.18"30.15"30.15"30.12"30.12"30.09"30.06"30"30"29.97"29.94"29.94"29.94"29.94"29.94"29.91"29.91"29.91"29.91"29.91"29.94"30"30.03"30.06"30.12"30.15"30.21"30.24"30.27"30.3"30.33"30.36"30.39"30.42"30.47"
Wind Speed 5.2 mph6.3 mph6.8 mph7.7 mph7.3 mph6.2 mph5.6 mph4.4 mph4.8 mph5.2 mph4.4 mph6.5 mph5.3 mph3.6 mph5.3 mph5 mph4.4 mph4.5 mph4.3 mph3 mph1.7 mph3.2 mph0.9 mph3.5 mph4.4 mph5 mph9.5 mph9.5 mph7.2 mph5.9 mph5.2 mph2.6 mph0.2 mph3.1 mph5.7 mph7.9 mph6.9 mph7.1 mph7.2 mph7 mph6.8 mph6.2 mph6.2 mph6.6 mph5.8 mph5.6 mph5.6 mph5.1 mph
Wind
Direction
349°
N
349°
N
357°
N
354°
N
356°
N
356°
N

N

N
354°
N
347°
NNW

N
354°
N
348°
NNW

N
355°
N
360°
N
12°
NNE
354°
N

N
10°
N
93°
E
158°
SSE
209°
SSW
182°
S
191°
S
190°
S
201°
SSW
222°
SW
248°
WSW
265°
W
255°
WSW
246°
WSW
277°
W
309°
NW
337°
NNW
348°
NNW
337°
NNW
334°
NNW
325°
NW
329°
NNW
326°
NW
316°
NW
315°
NW
321°
NW
322°
NW
328°
NNW
333°
NNW
334°
NNW

Daily Forecast

Date High Low Precip. Humidity
Today
Dec 3

Clouds
41 °F
31 °F
0%
59%
Saturday
Dec 4

Clouds
42 °F
32 °F
7%
53%
Sunday
Dec 5

Clouds
36 °F
27 °F
0%
57%
Monday
Dec 6

Snow
32 °F
18 °F
100%
93%
Tuesday
Dec 7

Snow
28 °F
17 °F
57%
86%
Wednesday
Dec 8

Snow
30 °F
19 °F
70%
93%
Thursday
Dec 9

Clouds
30 °F
16 °F
0%
85%
Friday
Dec 10

Clear
25 °F
9 °F
0%
78%
Saturday
Dec 11

Clouds
20 °F
5 °F
0%
93%
Sunday
Dec 12

Snow
30 °F
19 °F
100%
96%
Monday
Dec 13

Snow
33 °F
25 °F
100%
99%
Tuesday
Dec 14

Clouds
24 °F
11 °F
13%
96%
Wednesday
Dec 15

Snow
25 °F
15 °F
72%
97%
Thursday
Dec 16

Snow
23 °F
10 °F
21%
96%
Friday
Dec 17

Snow
28 °F
9 °F
100%
93%
Saturday
Dec 18

Snow
22 °F
2 °F
58%
99%

Temperature 8-14 Day Outlook



Precipitation 8-14 Day Outlook




Quick Links
Banks Lake News
Banks Lake Photos
Banks Lake Videos




About Us
Contact Us
Site Map
Search Site
Advertise With Us
   
Banks.USLakes.info
THE BANKS LAKE WEBSITE

Copyright 2021, Lakes Online
Privacy    |    Legal